Probability
0 0 0 0 0 0 0 0 0 0 0 0 0 0 0 0 0 0 0 0 0 0 0 0 0 0 0 0 0 0 0 0 0 0 0 0 0 0 0 0 0 0 0
0 0 0 0 0 0 0 0 0 0 0 0 0 0 0 0 0 0 0 0 0 0 0 0 0 0 0 0 0 0 0 0 0 0 0 0 0 0 0 0 0 0 0
0 0 0 0 0 0 0 0 0 0 0 0 0 0 0 0 0 0 0 0 0 0 0 0 0 0 0 0 0 0 0 0 0 0 0 0 0 0 0 0 0 0 0
0 0 0 0 0 0 0 0 0 0 0 0 0 0 0 0 0 0 0 0 0 0 0 0 0 0 0 0 0 0 0 0 0 0 0 0 0 0 0 0 0 0 0
0 0 0 0 0 0 0 0 0 0 0 0 0 0 0 0 0 0 0 0 0 0 0 0 0 0 0 0 0 0 0 0 0 0 0 0 0 0 0 0 0 0 0
0 0 0 0 0 0 0 0 0 0 0 0 0 0 0 0 0 0 0 0 0 0 0 0 0 0 0 0 0 0 0 0 0 0 0 0 0 0 0 0 0 0 0
0 0 0 0 0 0 0 0 0 0 0 0 0 0 0 0 0 0 0 0 0 0 0 0 0 0 0 0 0 0 0 0 0 0 0 0 0 0 0 0 0 0 0
0 0 0 0 0 0 0 0 0 0 0 0 0 0 0 0 0 0 0 0 0 0 0 0 0 0 0 0 0 0 0 0 0 0 0 0 0 0 0 0 0 0 0
0 0 0 0 0 0 0 0 0 0 0 0 0 0 0 0 0 0 0 0 0 0 0 0 0 0 0 0 0 0 0 0 0 0 0 0 0 0 0 0 0 0 0
0 0 0 0 0 0 0 0 0 0 0 0 0 0 0 0 0 0 0 0 0 0 0 0 0 0 0 0 0 0 0 0 0 0 0 0 0 0 0 0 0 0 0
0 0 0 0 0 0 0 0 0 0 0 0 0 0 0 0 0 0 0 0 0 0 0 0 0 0 0 0 0 0 0 0 0 0 0 0 0 0 0 0 0 0 0
0 0 0 0 0 0 0 0 0 0 0 0 0 0 0 0 0 0 0 0 0 0 0 0 0 0 0 0 0 0 0 0 0 0 0 0 0 0 0 0 0 0 0
0 0 0 0 0 0 0 0 0 0 0 0 0 0 0 0 0 0 0 0 0 0 0 0 0 0 0 0 0 0 0 0 0 0 0 0 0 0 0 0 0 0 0
0 0 0 0 0 0 0 0 0 0 0 0 0 0 0 0 0 0 0 0 0 0 0 0 0 0 0 0 0 0 0 0 0 0 0 0 0 0 0 0 0 0 0
0 0 0 0 0 0 0 0 0 0 0 0 0 0 0 0 0 0 0 0 0 0 0 0 0 0 0 0 0 0 0 0 0 0 0 0 0 0 0 0 0 0 0
0 0 0 0 0 0 0 0 0 0 0 0 0 0 0 0 0 0 0 0 0 0 0 0 0 0 0 0 0 0 0 0 0 0 0 0 0 0 0 0 0 0 0
0 0 0 0 0 0 0 0 0 0 0 0 0 0 0 0 0 0 0 0 0 0 0 0 0 0 0 0 0 0 0 0 0 0 0 0 0 0 0 0 0 0 0
0 0 0 0 0 0 0 0 0 0 0 0 0 0 0 0 0 0 0 0 0 0 0 0 0 0 0 0 0 0 0 0 0 0 0 0 0 0 0 0 0 0 0
0 0 0 0 0 0 0 0 0 0 0 0 0 0 0 0 0 0 0 0 0 0 0 0 0 0 0 0 0 0 0 0 0 0 0 0 0 0 0 0 0 0 0
0 0 0 0 0 0 0 0 0 0 0 0 0 0 0 0 0 0 0 0 0 0 0 0 0 0 0 0 0 0 0 0 0 0 0 0 0 0 0 0 0 0 0
0 0 0 0 0 0 0 0 0 0 0 0 0 0 0 0 0 0 0 0 0 0 0 0 0 0 0 0 0 0 0 0 0 0 0 0 0 0 0 0 0 0 0
0 0 0 0 0 0 0 0 0 0 0 0 0 0 0 0 0 0 0 0 0 0 0 0 0 0 0 0 0 0 0 0 0 0 0 0 0 0 0 0 0 0 0
0 0 0 0 0 0 0 0 0 0 0 0 0 0 0 0 0 0 0 0 0 0 0 0 0 0 0 0 0 0 0 0 0 0 0 0 0 0 0 0 0 0 0
0 0 0 0 0 0 0 0 0 0 0 0 0 0 0 0 0 0 0 0 0 0 0 0 0 0 0 0 0 0 0 0 0 0 0 0 0 0 0 0 0 0 0
0 0 0 0 0 0 0 0 0 0 0 0 0 0 0 0 0 0 0 0 0 0 0 0 0 0 0 0 0 0 0 0 0 0 0 0 0 0 0 0 0 0 0
0 0 0 0 0 0 0 0 0 0 0 0 0 0 0 0 0 0 0 0 0 0 0 0 0 0 0 0 0 0 0 0 0 0 0 0 0 0 0 0 0 0 0
Height
5708 5708 5709 5709 5710 5711 5712 5713 5715 5715 5716 5717 5718 5720 5721 5722 5723 5723 5724 5725 5725 5725 5726 5728 5729 5731 5734 5736 5739 5741 5743 5745 5748 5751 5753 5754 5756 5758 5760 5761 5763 5764 5765
5698 5699 5699 5700 5700 5701 5702 5703 5705 5705 5706 5707 5708 5710 5711 5712 5713 5714 5715 5715 5715 5715 5716 5717 5719 5721 5724 5726 5728 5731 5733 5735 5738 5740 5742 5744 5747 5749 5750 5751 5753 5754 5756
5689 5689 5690 5690 5691 5691 5692 5693 5694 5695 5696 5697 5698 5699 5701 5702 5703 5704 5705 5705 5705 5705 5706 5707 5709 5711 5713 5716 5718 5721 5723 5725 5728 5730 5732 5734 5737 5739 5740 5741 5743 5744 5745
5679 5680 5680 5681 5681 5681 5682 5683 5684 5685 5686 5687 5688 5689 5691 5692 5693 5694 5694 5694 5694 5695 5695 5696 5698 5700 5702 5705 5707 5710 5712 5714 5717 5719 5721 5724 5725 5727 5729 5731 5732 5733 5734
5670 5670 5670 5671 5671 5671 5672 5672 5673 5674 5675 5676 5677 5678 5680 5681 5682 5683 5683 5683 5683 5684 5685 5686 5687 5689 5691 5693 5696 5698 5701 5703 5706 5708 5710 5712 5714 5715 5717 5719 5721 5721 5723
5660 5661 5661 5661 5661 5661 5661 5661 5662 5663 5664 5665 5666 5667 5668 5669 5671 5671 5672 5672 5673 5673 5674 5675 5676 5678 5680 5682 5684 5687 5689 5691 5694 5696 5698 5700 5702 5703 5705 5707 5708 5710 5711
5651 5651 5651 5651 5651 5650 5650 5651 5651 5652 5653 5654 5655 5656 5657 5658 5659 5659 5660 5660 5661 5661 5662 5663 5665 5666 5668 5669 5671 5674 5676 5679 5681 5684 5686 5687 5689 5690 5692 5694 5695 5697 5699
5640 5640 5640 5640 5640 5640 5639 5639 5640 5641 5641 5642 5643 5644 5645 5645 5646 5647 5648 5648 5649 5650 5650 5651 5653 5654 5656 5657 5659 5661 5663 5666 5668 5670 5673 5675 5676 5678 5679 5681 5682 5684 5686
5630 5630 5630 5630 5629 5629 5628 5628 5628 5628 5629 5630 5631 5631 5632 5633 5633 5634 5635 5635 5636 5637 5638 5639 5640 5642 5643 5645 5646 5649 5651 5653 5655 5657 5659 5661 5663 5664 5666 5668 5669 5670 5672
5620 5620 5619 5618 5618 5617 5616 5616 5616 5616 5616 5617 5618 5618 5619 5619 5620 5620 5621 5622 5623 5624 5625 5626 5627 5629 5630 5632 5634 5636 5637 5640 5642 5644 5646 5648 5649 5651 5652 5654 5655 5656 5658
5610 5609 5608 5608 5607 5606 5605 5604 5604 5604 5604 5604 5605 5605 5606 5606 5607 5607 5608 5609 5610 5611 5612 5613 5615 5616 5617 5619 5621 5623 5624 5626 5628 5630 5632 5634 5635 5637 5638 5639 5641 5642 5643
5600 5599 5598 5597 5596 5594 5593 5592 5592 5591 5592 5592 5592 5592 5593 5593 5594 5594 5595 5596 5598 5598 5600 5600 5601 5602 5604 5606 5607 5609 5610 5612 5614 5616 5618 5619 5621 5622 5624 5625 5627 5628 5629
5589 5588 5587 5586 5585 5583 5582 5581 5580 5579 5579 5579 5580 5580 5580 5581 5581 5582 5583 5584 5585 5586 5587 5587 5588 5589 5591 5592 5594 5595 5597 5599 5601 5602 5604 5605 5607 5608 5610 5611 5612 5614 5615
5578 5577 5576 5575 5574 5572 5571 5569 5569 5568 5568 5568 5568 5568 5568 5569 5570 5570 5570 5571 5572 5573 5574 5575 5576 5577 5578 5579 5580 5582 5583 5585 5587 5588 5589 5591 5592 5594 5595 5597 5598 5599 5600
5568 5566 5565 5563 5562 5561 5559 5558 5557 5556 5556 5556 5557 5557 5557 5557 5558 5558 5558 5559 5559 5560 5561 5562 5562 5563 5564 5565 5567 5568 5569 5571 5573 5574 5575 5576 5578 5579 5581 5582 5583 5584 5585
5557 5555 5554 5552 5551 5549 5548 5546 5545 5544 5544 5544 5545 5545 5545 5545 5545 5546 5546 5546 5547 5547 5548 5549 5550 5550 5551 5552 5553 5554 5555 5557 5558 5560 5561 5562 5564 5565 5566 5567 5568 5569 5570
5546 5544 5542 5541 5539 5537 5536 5535 5534 5533 5533 5533 5532 5533 5533 5533 5533 5533 5533 5534 5534 5534 5535 5536 5537 5537 5538 5538 5539 5539 5541 5542 5544 5545 5547 5548 5549 5550 5551 5552 5553 5554 5555
5535 5533 5531 5529 5527 5526 5524 5523 5522 5521 5521 5521 5520 5520 5520 5520 5520 5520 5521 5521 5521 5522 5522 5523 5524 5524 5524 5524 5525 5525 5527 5528 5529 5530 5532 5533 5534 5535 5536 5537 5538 5539 5540
5523 5521 5519 5517 5516 5514 5513 5511 5510 5509 5509 5508 5508 5508 5507 5507 5508 5507 5507 5507 5508 5509 5509 5510 5510 5510 5511 5510 5510 5511 5512 5513 5514 5515 5516 5517 5519 5520 5521 5523 5524 5525 5525
5511 5509 5507 5505 5504 5502 5501 5499 5498 5497 5496 5496 5495 5494 5494 5494 5494 5494 5494 5494 5495 5495 5495 5496 5496 5496 5496 5496 5496 5496 5497 5499 5499 5500 5501 5503 5503 5504 5504 5506 5508 5509 5510
5499 5497 5495 5493 5491 5490 5488 5487 5486 5484 5483 5482 5482 5481 5481 5481 5481 5481 5481 5481 5481 5481 5482 5482 5482 5482 5482 5481 5481 5481 5482 5483 5484 5485 5486 5486 5487 5488 5489 5490 5492 5493 5494
5487 5485 5483 5481 5479 5478 5476 5475 5473 5472 5470 5469 5468 5468 5467 5467 5467 5467 5467 5467 5467 5467 5467 5467 5467 5467 5467 5466 5466 5466 5467 5467 5468 5470 5470 5471 5471 5472 5474 5475 5476 5476 5477
5475 5473 5471 5470 5468 5466 5464 5462 5461 5459 5457 5456 5455 5454 5453 5453 5452 5452 5452 5452 5452 5452 5453 5453 5453 5452 5452 5452 5451 5451 5451 5452 5453 5454 5455 5455 5456 5457 5458 5459 5459 5460 5460
5464 5462 5460 5458 5456 5453 5451 5450 5448 5446 5444 5443 5441 5440 5440 5439 5439 5438 5438 5438 5438 5438 5438 5438 5438 5437 5437 5437 5437 5437 5437 5437 5438 5438 5439 5439 5440 5441 5442 5442 5443 5443 5443
5452 5450 5448 5446 5444 5441 5439 5437 5435 5433 5431 5430 5429 5427 5426 5426 5425 5425 5424 5424 5424 5423 5424 5423 5423 5423 5423 5422 5422 5422 5422 5422 5423 5423 5423 5424 5425 5425 5425 5426 5426 5426 5426
5441 5438 5436 5434 5431 5429 5427 5425 5422 5420 5418 5417 5416 5415 5414 5413 5412 5412 5411 5410 5410 5410 5409 5409 5409 5409 5408 5408 5407 5407 5407 5407 5407 5408 5408 5408 5409 5409 5409 5409 5409 5409 5409
Wind_Speed
37 38 38 39 39 40 40 40 40 40 40 40 40 40 40 39 39 40 41 41 42 42 43 43 42 42 43 42 42 42 42 42 42 40 39 39 39 38 38 37 37 38 38
38 38 38 38 39 40 41 40 41 41 40 40 40 40 40 40 40 40 41 41 41 42 42 43 44 43 43 43 43 43 43 42 43 43 41 40 40 40 40 39 39 39 40
38 39 39 38 38 39 40 41 41 40 40 40 39 40 41 40 40 40 41 41 42 42 43 43 44 43 44 44 44 43 43 43 44 44 43 42 42 42 42 41 41 41 41
38 38 39 38 38 38 39 40 40 40 40 40 40 40 41 42 42 41 42 43 43 43 43 44 44 44 44 45 45 44 44 43 44 44 45 45 44 44 43 43 43 43 42
37 37 38 38 38 39 39 40 40 41 41 42 42 42 42 43 43 43 44 44 44 43 44 45 46 46 45 46 47 47 46 45 46 46 46 45 45 44 44 44 44 44 45
36 37 37 38 39 39 40 40 41 41 42 43 43 44 44 44 44 44 45 44 45 45 45 45 46 46 47 48 48 48 48 49 48 47 48 47 47 45 45 45 45 45 45
36 36 37 37 38 39 40 41 42 42 42 43 44 45 46 46 45 45 45 46 46 46 46 47 47 47 48 49 50 50 50 51 50 49 49 49 48 47 47 46 46 47 48
36 37 37 37 38 39 41 41 42 42 43 43 44 45 46 47 47 47 46 47 48 47 47 47 47 48 49 48 49 50 51 51 51 50 50 49 48 48 48 48 48 48 49
36 37 38 38 39 40 41 42 43 43 44 44 45 46 47 48 48 48 47 46 46 47 47 48 48 49 49 49 49 49 49 51 51 51 51 51 50 48 49 49 50 50 50
35 36 37 38 39 39 40 41 42 43 44 44 45 45 46 47 48 48 47 46 45 46 47 47 48 49 50 50 50 50 50 51 51 52 52 53 52 51 50 50 51 51 51
36 36 36 37 38 38 39 40 42 42 43 43 44 45 46 46 46 47 46 45 45 45 46 46 47 48 49 50 50 51 51 52 52 51 52 53 53 53 52 51 50 51 51
36 37 37 37 37 38 39 40 40 41 41 42 43 44 45 45 45 46 45 44 44 45 45 45 46 46 48 49 49 50 49 51 52 52 52 52 52 53 53 52 51 51 51
37 38 37 37 38 39 39 39 40 41 41 42 42 43 43 44 44 45 45 45 45 45 46 46 46 46 46 47 48 49 49 49 50 51 51 50 51 52 52 52 52 51 50
38 38 38 38 38 38 39 39 40 41 41 41 42 42 43 43 43 44 46 46 46 46 46 46 46 46 46 47 47 48 49 49 49 50 50 50 50 50 50 50 51 52 51
38 38 39 38 38 38 38 39 40 41 41 41 42 42 42 42 43 44 45 45 45 46 46 46 46 47 47 47 48 49 50 49 49 50 50 51 51 51 51 51 51 52 52
38 38 38 39 39 39 39 39 39 40 41 41 42 42 41 42 43 43 43 44 44 45 45 46 45 46 47 47 48 49 50 50 50 50 50 51 52 52 53 52 52 52 52
39 38 39 39 39 39 39 39 39 39 40 41 42 42 42 42 43 44 44 43 43 43 44 45 45 46 47 48 48 49 50 50 50 51 51 51 52 53 53 52 52 52 53
40 40 39 39 39 39 39 39 40 40 41 41 41 42 42 43 44 44 44 43 43 43 43 44 45 46 47 48 48 49 50 50 50 51 52 52 53 53 52 52 51 51 51
40 41 41 40 40 40 39 40 40 41 42 42 42 42 43 43 44 44 44 44 44 44 44 45 45 46 47 49 49 50 50 50 50 51 52 53 53 53 52 52 51 50 50
41 42 42 41 41 40 40 40 40 41 42 43 43 43 43 43 43 44 45 45 45 45 45 46 46 47 48 49 50 50 50 50 50 51 52 53 53 53 53 52 51 50 50
40 41 41 41 40 40 40 40 40 41 41 41 42 43 43 44 44 44 45 45 46 47 47 47 48 48 48 49 50 50 50 50 50 51 52 53 53 54 54 53 52 52 52
38 39 40 40 40 40 40 40 40 40 41 41 42 42 43 44 45 45 45 46 47 47 47 48 48 49 49 49 49 49 49 50 50 51 52 52 52 53 54 54 54 54 54
39 39 39 39 39 40 40 40 40 40 41 41 42 42 43 43 44 44 45 46 47 47 48 48 48 48 48 48 47 48 48 49 50 50 50 51 51 52 53 53 54 54 55
40 40 39 39 39 39 39 39 40 40 40 41 41 41 42 42 42 43 44 45 46 46 47 47 47 47 47 47 47 47 48 48 49 49 49 49 50 51 52 54 54 55 55
40 40 40 40 40 39 39 39 40 39 39 39 40 40 41 41 42 42 43 44 44 44 44 45 46 46 47 47 47 47 48 48 48 48 48 49 49 50 51 52 53 54 54
40 40 40 40 40 41 41 41 41 41 40 40 39 39 40 40 41 41 42 42 42 43 44 44 44 44 45 45 45 46 46 46 47 47 47 48 48 49 50 51 51 52 53
Wind_Direction
267 266 266 265 263 261 260 260 259 259 259 259 259 258 257 258 259 259 259 260 260 260 259 257 255 255 254 254 254 254 253 255 255 255 255 256 257 258 259 259 260 260 261
267 267 267 266 266 264 263 262 261 260 260 259 259 258 258 259 260 261 261 260 260 260 259 257 255 254 254 254 254 254 253 254 254 254 256 256 257 257 257 259 259 260 261
268 267 268 268 267 266 264 263 263 261 261 260 259 259 260 260 261 261 261 263 261 260 259 258 256 254 255 255 254 255 255 255 255 255 256 257 257 257 258 259 260 260 260
268 268 268 268 268 267 266 263 262 262 262 262 261 261 261 261 262 262 262 263 262 260 259 258 256 255 255 254 254 254 256 256 255 255 257 258 259 257 257 259 260 260 261
269 269 269 269 269 268 267 265 264 263 262 263 263 262 261 262 263 263 263 263 263 261 260 258 256 255 255 255 255 254 255 256 256 257 257 258 259 259 258 258 259 260 261
271 271 272 271 271 270 268 266 265 264 263 262 263 263 263 262 263 263 264 264 263 263 260 259 257 256 255 255 256 257 256 256 256 257 257 258 259 259 260 260 260 261 262
273 273 273 273 272 271 269 267 266 265 264 264 263 264 263 263 262 263 264 264 264 263 262 260 258 257 257 257 257 257 257 257 257 257 258 259 260 260 261 261 261 262 263
273 274 275 275 274 273 271 268 266 265 265 265 264 264 264 263 263 263 264 265 264 262 262 261 259 258 258 258 258 258 258 258 257 257 257 259 261 261 261 261 262 263 264
275 275 275 275 275 274 273 271 269 267 265 265 266 265 265 265 265 265 264 264 263 262 262 261 259 258 258 258 259 258 259 259 258 257 257 258 260 261 262 262 262 263 263
276 277 277 276 275 275 274 272 270 269 267 266 266 266 266 265 265 265 265 264 262 261 261 261 259 258 257 257 258 258 259 259 259 258 258 259 259 260 261 262 263 264 264
278 278 278 277 277 276 275 273 271 270 269 268 267 266 266 265 265 264 264 263 262 262 261 261 261 259 258 258 258 259 260 259 259 260 259 259 260 260 261 262 264 264 264
279 279 279 278 277 277 277 275 273 271 270 269 268 267 266 265 264 264 264 263 263 263 261 261 261 261 259 259 259 259 260 260 260 260 261 261 261 261 262 262 263 264 265
280 278 279 278 278 277 277 275 274 272 270 268 268 267 267 266 265 264 264 264 264 264 263 263 262 262 261 261 260 259 260 262 262 261 262 262 262 262 262 263 263 264 265
281 280 279 278 278 278 277 276 275 273 270 267 267 267 266 267 266 265 265 265 265 265 264 265 264 264 263 263 262 261 261 262 261 261 261 262 262 262 262 262 263 263 265
283 281 280 280 279 278 278 277 276 273 270 267 267 267 267 267 267 267 267 266 265 265 265 265 265 264 264 264 264 263 262 262 261 260 261 262 262 262 261 262 263 264 265
282 282 281 280 279 279 279 278 277 274 271 268 268 267 268 268 268 268 267 267 267 266 265 265 266 266 265 266 266 266 265 263 261 261 261 262 262 263 263 264 264 265 266
282 283 282 282 281 281 280 279 277 274 271 270 269 268 267 267 267 268 268 267 267 267 267 267 267 267 268 268 268 268 266 264 263 262 262 263 263 264 264 264 265 266 266
282 283 282 282 282 281 280 278 277 274 273 273 271 270 268 267 267 268 268 267 267 267 267 267 267 268 269 269 269 268 267 265 264 263 263 263 264 265 264 264 265 267 267
282 283 283 283 282 281 280 279 277 275 273 273 273 271 270 268 268 267 268 268 268 267 267 267 268 268 268 269 269 269 268 267 266 264 264 263 263 264 264 265 265 266 267
282 283 283 283 283 281 281 280 279 277 275 274 273 272 270 269 269 268 268 268 268 268 268 268 269 269 270 270 270 269 268 267 267 266 265 264 264 263 264 265 265 265 266
284 283 283 283 283 282 281 280 279 278 276 275 274 273 271 270 269 270 270 270 269 269 269 269 270 271 271 270 269 269 268 268 267 266 266 265 265 265 264 264 264 265 266
285 284 283 283 283 282 282 281 280 279 277 276 274 273 272 271 270 270 269 270 270 270 270 271 271 272 271 271 270 269 268 268 267 267 267 266 265 265 265 264 265 265 266
285 286 285 284 283 283 282 281 281 280 278 276 275 274 273 272 271 270 270 270 270 270 271 271 271 271 271 270 269 268 268 268 268 268 267 266 266 266 266 265 265 266 267
285 286 286 285 284 283 282 282 282 281 279 277 276 274 273 272 272 272 271 271 271 271 271 272 272 271 270 269 269 269 269 269 268 267 267 267 267 268 267 267 267 267 268
284 285 285 285 285 284 283 283 282 282 280 278 277 275 274 273 273 273 272 272 272 272 272 272 271 271 271 271 270 271 270 270 269 268 268 268 268 268 269 268 268 268 268
285 286 286 286 285 285 284 283 282 281 280 278 277 275 275 274 274 273 273 273 272 271 272 272 272 272 272 272 272 272 271 271 270 269 269 269 269 269 269 269 269 268 268